Location: Unspecified
(17.6330°N, 0.0000°E)
Time: 15:36:45
(UTC+00:00)

A-11 Canister half - Pass Details

Date: 26 June 2019
Orbit: 1514 x 1686 km, 47.2° (Epoch: 21 August)

Event Time Altitude Azimuth Distance (km) Brightness Sun altitude
Rises 05:40:24 0° 189° (S) 4,913 11.3 2.0°
Reaches altitude 10° 05:44:24 10° 176° (S) 3,937 11.0 2.9°
Maximum altitude 05:52:04 25° 126° (SE) 2,949 11.0 4.5°
Drops below altitude 10° 05:59:40 10° 77° (ENE) 3,927 13.6 6.2°
Sets 06:03:35 0° 64° (ENE) 4,899 14.3 7.1°
